K6PIJ Weather Reports


Display with metric or nautical units.
time (UTC)temp
F
wind
direction
speed
MPH
gust
MPH
rain 1hr
in
rain 24hr
in
rain mn
in
humidity
%
barometer
mb
20171217061558 47 302 2.0 5.0 0.00 0.00 0.00 75 1022.2
20171217061113 47 319 2.0 5.0 0.00 0.00 0.00 75 1022.1
20171217061107 48 309 2.0 5.0 0.00 0.00 0.00 75 1022.2
20171217060558 48 288 3.0 7.0 0.00 0.00 0.00 76 1022.3
20171217060048 48 306 3.0 8.0 0.00 0.00 0.00 76 1022.2
20171217055558 48 310 3.0 8.0 0.00 0.00 0.00 77 1022.2
20171217055507 48 304 3.0 8.0 0.00 0.00 0.00 77 1022.2
20171217055108 48 290 3.0 7.0 0.00 0.00 0.00 78 1022.2
20171217054558 48 314 3.0 9.0 0.00 0.00 0.00 78 1022.2
20171217054107 48 313 5.0 9.0 0.00 0.00 0.00 78 1022.2
20171217053918 48 309 4.0 9.0 0.00 0.00 0.00 79 1022.2
20171217053558 48 275 3.0 10.0 0.00 0.00 0.00 78 1022.3
20171217053050 48 304 5.0 12.0 0.00 0.00 0.00 79 1022.3
20171217052555 48 290 5.0 14.0 0.00 0.00 0.00 78 1022.3
20171217052433 48 269 3.0 14.0 0.00 0.00 0.00 78 1022.2
20171217052104 48 327 4.0 14.0 0.00 0.00 0.00 78 1022.1
20171217051552 48 329 3.0 11.0 0.00 0.00 0.00 78 1022.1
20171217051103 48 317 4.0 11.0 0.00 0.00 0.00 79 1022.1
20171217050801 48 323 3.0 11.0 0.00 0.00 0.00 79 1022.1
20171217050552 48 328 4.0 9.0 0.00 0.00 0.00 80 1022.1
20171217050100 48 328 3.0 5.0 0.00 0.00 0.00 81 1022.1
20171217045550 48 325 2.0 5.0 0.00 0.00 0.00 81 1022.0
20171217045244 47 320 1.0 5.0 0.00 0.00 0.00 81 1022.0
20171217045059 48 316 2.0 5.0 0.00 0.00 0.00 81 1022.0
20171217044609 48 310 2.0 5.0 0.00 0.00 0.00 81 1022.0
20171217044059 48 325 3.0 7.0 0.00 0.00 0.00 82 1022.0
20171217043629 48 309 3.0 6.0 0.00 0.00 0.00 82 1021.9
20171217043608 48 324 3.0 6.0 0.00 0.00 0.00 82 1021.9
20171217043057 48 314 3.0 8.0 0.00 0.00 0.00 82 1021.9
20171217042608 48 304 4.0 8.0 0.00 0.00 0.00 82 1021.8
20171217042057 48 300 5.0 7.0 0.00 0.00 0.00 81 1021.7
20171217042028 48 300 5.0 7.0 0.00 0.00 0.00 81 1021.7
20171217041606 49 304 4.0 7.0 0.00 0.00 0.00 79 1021.7
20171217041058 49 275 4.0 11.0 0.00 0.00 0.00 77 1021.7
20171217040608 49 336 7.0 11.0 0.00 0.00 0.00 77 1021.6
20171217040447 49 309 5.0 12.0 0.00 0.00 0.00 77 1021.5
20171217040058 49 320 5.0 12.0 0.00 0.00 0.00 77 1021.5
20171217035608 49 308 8.0 12.0 0.00 0.00 0.00 78 1021.5
20171217035059 49 335 7.0 10.0 0.00 0.00 0.00 79 1021.5
20171217034859 49 325 4.0 9.0 0.00 0.00 0.00 79 1021.6
20171217034550 49 316 5.0 11.0 0.00 0.00 0.00 79 1021.6
20171217034101 50 342 7.0 13.0 0.00 0.00 0.00 79 1021.6
20171217033549 50 20 5.0 16.0 0.00 0.00 0.00 79 1021.5
20171217033312 49 31 6.0 16.0 0.00 0.00 0.00 80 1021.5
20171217033057 50 41 8.0 16.0 0.00 0.00 0.00 80 1021.5
20171217032601 50 37 8.0 19.0 0.00 0.00 0.00 80 1021.7
20171217032050 50 309 8.0 19.0 0.00 0.00 0.00 81 1021.8
20171217031743 50 60 10.0 20.0 0.00 0.00 0.00 81 1021.8
20171217031559 50 29 11.0 20.0 0.00 0.00 0.00 81 1021.8
20171217031049 50 285 8.0 21.0 0.00 0.00 0.00 81 1021.9
20171217030557 50 302 9.0 21.0 0.00 0.00 0.00 81 1022.1
20171217030237 50 345 7.0 16.0 0.00 0.00 0.00 81 1022.1
20171217030106 50 310 8.0 16.0 0.00 0.00 0.00 82 1022.1
20171217025555 50 317 7.0 18.0 0.00 0.00 0.00 82 1022.2
20171217025105 50 30 10.0 18.0 0.00 0.00 0.00 82 1022.2
20171217024612 49 304 8.0 17.0 0.00 0.00 0.00 82 1022.2
20171217024555 50 323 8.0 17.0 0.00 0.00 0.00 82 1022.2
20171217024106 50 318 10.0 17.0 0.00 0.00 0.00 82 1022.2
20171217023555 50 326 11.0 16.0 0.00 0.00 0.00 82 1022.2
20171217023104 50 30 10.0 16.0 0.00 0.00 0.00 82 1022.2
20171217022955 49 321 9.0 16.0 0.00 0.00 0.00 82 1022.2
20171217022556 50 307 8.0 14.0 0.00 0.00 0.00 82 1022.2
20171217022104 50 335 7.0 14.0 0.00 0.00 0.00 81 1022.0
20171217021555 50 317 5.0 15.0 0.00 0.00 0.00 81 1022.2
20171217021430 50 319 7.0 17.0 0.00 0.00 0.00 81 1022.2
20171217021105 50 312 9.0 17.0 0.00 0.00 0.00 81 1022.2
20171217020554 50 326 6.0 13.0 0.00 0.00 0.00 81 1022.1
20171217020103 50 350 6.0 18.0 0.00 0.00 0.00 80 1022.1
20171217015848 50 305 7.0 18.0 0.00 0.00 0.00 80 1022.0
20171217015550 50 307 11.0 18.0 0.00 0.00 0.00 80 1022.2
20171217015055 50 306 7.0 13.0 0.00 0.00 0.00 80 1022.2
20171217014605 50 283 7.0 14.0 0.00 0.00 0.00 80 1022.1
20171217014230 49 314 7.0 14.0 0.00 0.00 0.00 80 1022.2
20171217014053 50 322 6.0 14.0 0.00 0.00 0.00 80 1022.3
20171217013603 50 304 5.0 13.0 0.00 0.00 0.00 79 1022.3
20171217013052 50 318 5.0 16.0 0.00 0.00 0.00 79 1022.2
20171217012701 50 18 6.0 16.0 0.00 0.00 0.00 79 1022.2
20171217012557 50 312 7.0 16.0 0.00 0.00 0.00 79 1022.2
20171217012108 50 327 7.0 16.0 0.00 0.00 0.00 79 1022.2
20171217011557 50 335 5.0 17.0 0.00 0.00 0.00 78 1022.2
20171217011106 50 311 8.0 17.0 0.00 0.00 0.00 78 1022.3
20171217011052 50 319 6.0 10.0 0.00 0.00 0.00 78 1022.3
20171217010555 50 333 7.0 10.0 0.00 0.00 0.00 78 1022.3
20171217010104 50 323 3.0 10.0 0.00 0.00 0.00 78 1022.2
20171217005552 50 328 5.0 12.0 0.00 0.00 0.00 77 1022.2
20171217005513 50 295 5.0 12.0 0.00 0.00 0.00 77 1022.1
20171217005102 51 334 7.0 14.0 0.00 0.00 0.00 77 1022.2
20171217004603 51 306 8.0 14.0 0.00 0.00 0.00 76 1022.3
20171217004052 51 320 5.0 12.0 0.00 0.00 0.00 76 1022.3
20171217003918 50 303 5.0 12.0 0.00 0.00 0.00 75 1022.2
20171217003603 51 328 6.0 12.0 0.00 0.00 0.00 75 1022.2
20171217003051 51 319 8.0 13.0 0.00 0.00 0.00 75 1022.3
20171217002553 51 290 7.0 15.0 0.00 0.00 0.00 73 1022.1
20171217002342 51 309 6.0 15.0 0.00 0.00 0.00 73 1022.3
20171217002101 51 330 10.0 18.0 0.00 0.00 0.00 72 1022.2
20171217001551 52 311 9.0 22.0 0.00 0.00 0.00 71 1022.3
20171217001058 52 300 11.0 22.0 0.00 0.00 0.00 70 1022.2
20171217000751 52 330 10.0 18.0 0.00 0.00 0.00 69 1022.3
20171217000609 52 294 10.0 17.0 0.00 0.00 0.00 68 1022.2
20171217000058 52 326 5.0 16.0 0.00 0.00 0.00 66 1022.2
20171216235608 53 304 6.0 16.0 0.00 0.00 0.00 65 1022.3
20171216235207 52 310 10.0 16.0 0.00 0.00 0.00 63 1022.2
20171216235055 53 326 10.0 16.0 0.00 0.00 0.00 63 1022.3
20171216234605 53 313 8.0 19.0 0.00 0.00 0.00 61 1022.3
20171216234056 53 317 10.0 19.0 0.00 0.00 0.00 60 1022.3
20171216233604 53 307 9.0 14.0 0.00 0.00 0.00 58 1022.3
20171216233547 53 297 9.0 14.0 0.00 0.00 0.00 58 1022.2
20171216233052 53 297 9.0 16.0 0.00 0.00 0.00 58 1022.3
20171216232602 53 297 8.0 16.0 0.00 0.00 0.00 58 1022.4
20171216232051 53 281 8.0 19.0 0.00 0.00 0.00 59 1022.3
20171216232043 53 262 6.0 19.0 0.00 0.00 0.00 59 1022.3
20171216231602 53 311 9.0 19.0 0.00 0.00 0.00 59 1022.3
20171216231051 53 282 6.0 15.0 0.00 0.00 0.00 59 1022.2
20171216230601 54 325 7.0 15.0 0.00 0.00 0.00 59 1022.1
20171216230546 53 325 9.0 15.0 0.00 0.00 0.00 59 1022.0
20171216230049 54 326 7.0 13.0 0.00 0.00 0.00 58 1022.0
20171216225556 54 314 8.0 12.0 0.00 0.00 0.00 57 1022.0
20171216225107 54 265 5.0 16.0 0.00 0.00 0.00 57 1022.0
20171216224906 53 290 4.0 16.0 0.00 0.00 0.00 57 1022.0
20171216224556 54 67 9.0 16.0 0.00 0.00 0.00 56 1022.1
20171216224104 54 309 6.0 16.0 0.00 0.00 0.00 55 1022.2
20171216223554 54 331 6.0 16.0 0.00 0.00 0.00 56 1022.2
20171216223419 53 306 5.0 14.0 0.00 0.00 0.00 56 1022.2
20171216223105 54 299 7.0 14.0 0.00 0.00 0.00 55 1022.2
20171216222556 54 296 3.0 15.0 0.00 0.00 0.00 54 1022.1
20171216222105 54 37 5.0 15.0 0.00 0.00 0.00 54 1022.2
20171216221730 53 323 7.0 15.0 0.00 0.00 0.00 54 1022.1
20171216221554 54 330 5.0 11.0 0.00 0.00 0.00 54 1022.0
20171216221105 54 6 4.0 11.0 0.00 0.00 0.00 54 1022.2
20171216220551 54 316 7.0 13.0 0.00 0.00 0.00 55 1022.3
20171216220158 53 314 7.0 14.0 0.00 0.00 0.00 55 1022.3
20171216220100 53 282 8.0 14.0 0.00 0.00 0.00 55 1022.3
20171216215608 53 312 7.0 13.0 0.00 0.00 0.00 55 1022.3
20171216215056 53 308 6.0 14.0 0.00 0.00 0.00 55 1022.2
20171216214608 53 338 6.0 14.0 0.00 0.00 0.00 56 1022.3
20171216214543 53 297 6.0 14.0 0.00 0.00 0.00 55 1022.2
20171216214056 53 311 6.0 18.0 0.00 0.00 0.00 55 1022.3
20171216213604 53 301 6.0 18.0 0.00 0.00 0.00 55 1022.2
20171216213051 53 314 7.0 15.0 0.00 0.00 0.00 55 1022.2
20171216213017 53 298 8.0 15.0 0.00 0.00 0.00 56 1022.2
20171216212559 53 277 5.0 11.0 0.00 0.00 0.00 57 1022.3
20171216212049 53 31 5.0 11.0 0.00 0.00 0.00 57 1022.3
20171216211558 53 328 6.0 15.0 0.00 0.00 0.00 57 1022.4
20171216211439 52 305 4.0 15.0 0.00 0.00 0.00 59 1022.4
20171216211109 53 332 7.0 15.0 0.00 0.00 0.00 58 1022.4
20171216210557 53 307 7.0 15.0 0.00 0.00 0.00 57 1022.4
20171216210105 53 306 7.0 12.0 0.00 0.00 0.00 57 1022.5
20171216205822 52 303 6.0 17.0 0.00 0.00 0.00 57 1022.5
20171216205554 53 306 7.0 17.0 0.00 0.00 0.00 57 1022.6
20171216205102 52 300 10.0 17.0 0.00 0.00 0.00 55 1022.7
20171216204553 53 328 10.0 16.0 0.00 0.00 0.00 56 1022.7
20171216204253 52 278 8.0 14.0 0.00 0.00 0.00 58 1022.6
20171216204100 53 317 9.0 14.0 0.00 0.00 0.00 58 1022.7
20171216203607 52 299 5.0 13.0 0.00 0.00 0.00 59 1022.8
20171216203055 52 295 6.0 17.0 0.00 0.00 0.00 60 1022.9
20171216202704 52 284 8.0 17.0 0.00 0.00 0.00 60 1022.9
20171216202605 52 274 9.0 17.0 0.00 0.00 0.00 60 1022.9
20171216202054 52 307 8.0 17.0 0.00 0.00 0.00 59 1022.9
20171216201601 52 314 7.0 15.0 0.00 0.00 0.00 61 1023.2
20171216201054 52 307 7.0 17.0 0.00 0.00 0.00 61 1023.3
20171216201049 52 306 8.0 17.0 0.00 0.00 0.00 61 1023.3
20171216200559 52 309 10.0 17.0 0.00 0.00 0.00 62 1023.4
20171216200108 52 321 8.0 15.0 0.00 0.00 0.00 64 1023.6
20171216195554 52 335 7.0 19.0 0.00 0.00 0.00 64 1023.7
20171216195427 51 297 8.0 19.0 0.00 0.00 0.00 64 1023.6
20171216195059 52 316 7.0 18.0 0.00 0.00 0.00 65 1023.7
20171216194550 52 274 8.0 13.0 0.00 0.00 0.00 62 1023.8
20171216194055 52 296 6.0 13.0 0.00 0.00 0.00 63 1023.7
20171216193953 51 300 9.0 13.0 0.00 0.00 0.00 63 1023.8
20171216193603 52 323 8.0 15.0 0.00 0.00 0.00 63 1023.8
20171216193053 52 297 7.0 17.0 0.00 0.00 0.00 63 1023.9
20171216192603 52 21 6.0 17.0 0.00 0.00 0.00 62 1024.0
20171216192326 51 321 10.0 17.0 0.00 0.00 0.00 62 1024.0
20171216192053 52 304 6.0 13.0 0.00 0.00 0.00 62 1024.1
20171216191601 52 304 6.0 18.0 0.00 0.00 0.00 62 1024.1
20171216191109 51 309 7.0 18.0 0.00 0.00 0.00 62 1024.1
20171216190725 51 334 8.0 19.0 0.00 0.00 0.00 62 1024.1
20171216190558 51 319 9.0 19.0 0.00 0.00 0.00 61 1024.1
20171216190107 51 326 9.0 19.0 0.00 0.00 0.00 63 1024.3
20171216185552 51 328 6.0 20.0 0.00 0.00 0.00 66 1024.4
20171216185140 50 340 7.0 20.0 0.00 0.00 0.00 66 1024.3
20171216185058 51 309 7.0 20.0 0.00 0.00 0.00 66 1024.4
20171216184606 51 345 7.0 18.0 0.00 0.00 0.00 66 1024.3
20171216184054 51 316 9.0 18.0 0.00 0.00 0.00 66 1024.3
20171216183603 51 328 8.0 18.0 0.00 0.00 0.00 67 1024.4
20171216183522 50 293 7.0 18.0 0.00 0.00 0.00 67 1024.3
20171216183051 51 307 10.0 18.0 0.00 0.00 0.00 66 1024.4
20171216182559 51 317 8.0 14.0 0.00 0.00 0.00 66 1024.4
20171216182109 51 308 7.0 14.0 0.00 0.00 0.00 66 1024.4
20171216181958 50 279 7.0 13.0 0.00 0.00 0.00 67 1024.3
20171216181556 51 314 6.0 11.0 0.00 0.00 0.00 67 1024.3
20171216181105 51 314 4.0 12.0 0.00 0.00 0.00 67 1024.3
20171216180557 51 310 4.0 12.0 0.00 0.00 0.00 68 1024.3
20171216180344 50 341 5.0 11.0 0.00 0.00 0.00 68 1024.2
20171216180106 51 356 5.0 11.0 0.00 0.00 0.00 68 1024.3
20171216175553 50 307 4.0 12.0 0.00 0.00 0.00 68 1024.3
20171216175055 50 300 3.0 12.0 0.00 0.00 0.00 68 1024.2
20171216174814 50 14 2.0 12.0 0.00 0.00 0.00 68 1024.2
20171216174603 50 328 3.0 13.0 0.00 0.00 0.00 68 1024.1
20171216173553 49 47 4.0 11.0 0.00 0.00 0.00 70 1024.1
20171216173101 49 289 6.0 13.0 0.00 0.00 0.00 71 1024.1
20171216173050 49 310 4.0 13.0 0.00 0.00 0.00 71 1024.1
20171216172609 49 335 6.0 12.0 0.00 0.00 0.00 71 1024.0
20171216172056 48 309 3.0 10.0 0.00 0.00 0.00 73 1024.1
20171216171605 48 224 4.0 9.0 0.00 0.00 0.00 74 1024.1
20171216171502 48 293 4.0 9.0 0.00 0.00 0.00 74 1024.0
20171216171052 48 304 5.0 12.0 0.00 0.00 0.00 74 1024.0
20171216170600 48 311 6.0 13.0 0.00 0.00 0.00 74 1024.0
20171216170106 48 307 5.0 13.0 0.00 0.00 0.00 75 1024.0
20171216165928 47 319 4.0 12.0 0.00 0.00 0.00 75 1024.0
20171216165551 47 293 6.0 13.0 0.00 0.00 0.00 75 1023.9
20171216165059 47 300 8.0 13.0 0.00 0.00 0.00 75 1023.9
20171216164607 47 311 6.0 10.0 0.00 0.00 0.00 76 1023.9
20171216164316 46 302 3.0 10.0 0.00 0.00 0.00 76 1023.8
20171216164055 47 301 4.0 10.0 0.00 0.00 0.00 76 1023.7
20171216163600 46 298 2.0 6.0 0.00 0.00 0.00 77 1023.8
20171216163050 46 298 0.0 5.0 0.00 0.00 0.00 77 1023.7
20171216162730 45 294 0.0 7.0 0.00 0.00 0.00 77 1023.7
20171216162553 46 273 1.0 8.0 0.00 0.00 0.00 77 1023.7
20171216162102 46 294 3.0 8.0 0.00 0.00 0.00 78 1023.7
20171216161549 45 318 4.0 7.0 0.00 0.00 0.00 78 1023.6
20171216161155 45 314 2.0 6.0 0.00 0.00 0.00 78 1023.5
20171216161101 45 307 3.0 6.0 0.00 0.00 0.00 78 1023.5
20171216160550 45 275 2.0 7.0 0.00 0.00 0.00 78 1023.6
20171216160101 45 290 3.0 7.0 0.00 0.00 0.00 78 1023.4
20171216155609 45 292 3.0 9.0 0.00 0.00 0.00 77 1023.3
20171216155546 45 309 2.0 9.0 0.00 0.00 0.00 77 1023.3
20171216155053 45 299 4.0 9.0 0.00 0.00 0.00 77 1023.3
20171216154604 45 272 2.0 6.0 0.00 0.00 0.00 77 1023.3
20171216154054 45 259 2.0 6.0 0.00 0.00 0.00 77 1023.3
20171216154024 45 236 0.0 6.0 0.00 0.00 0.00 77 1023.4
20171216153605 45 296 2.0 8.0 0.00 0.00 0.00 77 1023.5
20171216153057 45 283 4.0 8.0 0.00 0.00 0.00 77 1023.6
20171216152550 45 248 5.0 9.0 0.00 0.00 0.00 77 1023.5
20171216152422 45 316 4.0 9.0 0.00 0.00 0.00 77 1023.5
20171216152059 45 264 4.0 12.0 0.00 0.00 0.00 77 1023.4
20171216151607 45 308 5.0 12.0 0.00 0.00 0.00 77 1023.3
20171216151056 45 302 4.0 7.0 0.00 0.00 0.00 78 1023.3
20171216150852 45 278 3.0 9.0 0.00 0.00 0.00 78 1023.4
20171216150606 45 269 4.0 10.0 0.00 0.00 0.00 78 1023.4
20171216150054 45 282 3.0 10.0 0.00 0.00 0.00 77 1023.5
20171216145601 45 300 3.0 9.0 0.00 0.00 0.00 77 1023.4
20171216145257 45 243 2.0 10.0 0.00 0.00 0.00 77 1023.5
20171216145109 45 239 4.0 10.0 0.00 0.00 0.00 77 1023.5
20171216144558 45 299 5.0 11.0 0.00 0.00 0.00 77 1023.5
20171216144107 45 282 2.0 7.0 0.00 0.00 0.00 78 1023.6
20171216143704 45 286 3.0 7.0 0.00 0.00 0.00 78 1023.5
20171216143555 45 287 3.0 7.0 0.00 0.00 0.00 78 1023.6
20171216143059 45 321 3.0 6.0 0.00 0.00 0.00 78 1023.6
20171216142608 45 302 3.0 8.0 0.00 0.00 0.00 78 1023.7
20171216142144 45 285 4.0 10.0 0.00 0.00 0.00 78 1023.6
20171216142055 45 295 4.0 10.0 0.00 0.00 0.00 78 1023.6
20171216141603 45 303 6.0 10.0 0.00 0.00 0.00 78 1023.6
20171216141109 45 283 3.0 8.0 0.00 0.00 0.00 78 1023.7
20171216140557 45 303 4.0 9.0 0.00 0.00 0.00 78 1023.6
20171216140453 45 298 4.0 10.0 0.00 0.00 0.00 78 1023.6
20171216140104 45 291 3.0 11.0 0.00 0.00 0.00 79 1023.6
20171216135610 45 282 4.0 11.0 0.00 0.00 0.00 79 1023.6
20171216135055 45 296 4.0 8.0 0.00 0.00 0.00 79 1023.6
20171216134958 45 299 4.0 8.0 0.00 0.00 0.00 79 1023.5
20171216134602 45 304 3.0 8.0 0.00 0.00 0.00 79 1023.6
20171216134051 46 203 5.0 14.0 0.00 0.00 0.00 79 1023.5
20171216133556 46 302 6.0 14.0 0.00 0.00 0.00 79 1023.6
20171216133430 45 285 4.0 10.0 0.00 0.00 0.00 79 1023.6
20171216133102 46 307 4.0 10.0 0.00 0.00 0.00 79 1023.7
20171216132610 46 180 4.0 11.0 0.00 0.00 0.00 79 1023.6
20171216132057 46 293 6.0 11.0 0.00 0.00 0.00 79 1023.8
20171216131800 45 278 4.0 8.0 0.00 0.00 0.00 80 1023.8
20171216131602 46 300 4.0 8.0 0.00 0.00 0.00 79 1023.8
20171216131050 46 316 4.0 7.0 0.00 0.00 0.00 79 1023.7
20171216130558 46 317 1.0 9.0 0.00 0.00 0.00 79 1023.6
20171216130224 46 313 2.0 11.0 0.00 0.00 0.00 79 1023.7
20171216130101 46 293 3.0 11.0 0.00 0.00 0.00 79 1023.7
20171216125604 46 297 4.0 11.0 0.00 0.00 0.00 79 1023.7
20171216125052 46 293 6.0 10.0 0.00 0.00 0.00 79 1023.8
20171216124557 46 321 5.0 10.0 0.00 0.00 0.00 79 1023.8
20171216124516 46 319 4.0 10.0 0.00 0.00 0.00 79 1023.8
20171216124107 47 326 5.0 10.0 0.00 0.00 0.00 79 1023.9
20171216123555 47 297 4.0 10.0 0.00 0.00 0.00 78 1023.9
20171216123101 47 322 6.0 17.0 0.00 0.00 0.00 79 1023.9
20171216122946 46 332 6.0 17.0 0.00 0.00 0.00 79 1024.0
20171216122607 47 306 6.0 17.0 0.00 0.00 0.00 80 1024.0
20171216122051 47 276 5.0 12.0 0.00 0.00 0.00 79 1024.0
20171216121601 47 327 3.0 10.0 0.00 0.00 0.00 79 1024.1
20171216121335 46 314 3.0 11.0 0.00 0.00 0.00 79 1024.1
20171216121107 47 311 4.0 11.0 0.00 0.00 0.00 79 1024.1
20171216120557 47 300 3.0 8.0 0.00 0.00 0.00 79 1024.3
20171216120103 47 321 4.0 10.0 0.00 0.00 0.00 79 1024.3
20171216115711 46 307 5.0 10.0 0.00 0.00 0.00 79 1024.4
20171216115609 47 311 6.0 10.0 0.00 0.00 0.00 80 1024.5
20171216115056 46 333 4.0 11.0 0.00 0.00 0.00 80 1024.6
20171216114607 46 320 6.0 11.0 0.00 0.00 0.00 81 1024.5
20171216114226 46 326 3.0 7.0 0.00 0.00 0.00 81 1024.5
20171216114056 46 274 4.0 7.0 0.00 0.00 0.00 81 1024.5
20171216113604 46 318 3.0 9.0 0.00 0.00 0.00 81 1024.4
20171216113051 46 297 3.0 9.0 0.00 0.00 0.00 81 1024.4
20171216112602 47 283 4.0 8.0 0.00 0.00 0.00 81 1024.5
20171216112551 46 305 4.0 8.0 0.00 0.00 0.00 81 1024.5
20171216112050 47 304 4.0 12.0 0.00 0.00 0.00 81 1024.3
20171216111559 47 328 6.0 12.0 0.00 0.00 0.00 80 1024.5
20171216111104 47 324 5.0 11.0 0.00 0.00 0.00 80 1024.5
20171216110955 46 313 6.0 11.0 0.00 0.00 0.00 80 1024.5
20171216110552 47 314 6.0 11.0 0.00 0.00 0.00 81 1024.5
20171216110056 47 289 6.0 9.0 0.00 0.00 0.00 81 1024.6
20171216105601 47 318 4.0 10.0 0.00 0.00 0.00 81 1024.6
20171216105335 46 291 2.0 10.0 0.00 0.00 0.00 81 1024.6
20171216105110 47 276 4.0 10.0 0.00 0.00 0.00 81 1024.5
20171216104559 47 310 3.0 9.0 0.00 0.00 0.00 80 1024.4
20171216104104 47 295 4.0 10.0 0.00 0.00 0.00 80 1024.5
20171216103749 47 300 6.0 10.0 0.00 0.00 0.00 81 1024.5
20171216103551 47 315 6.0 10.0 0.00 0.00 0.00 81 1024.5
20171216103058 47 311 3.0 10.0 0.00 0.00 0.00 80 1024.4
20171216102605 48 301 4.0 11.0 0.00 0.00 0.00 80 1024.4
20171216102154 47 301 4.0 12.0 0.00 0.00 0.00 80 1024.4
20171216102110 48 316 5.0 12.0 0.00 0.00 0.00 80 1024.4
20171216101559 48 302 6.0 12.0 0.00 0.00 0.00 80 1024.5
20171216101109 48 274 3.0 10.0 0.00 0.00 0.00 80 1024.6
20171216100619 47 307 5.0 10.0 0.00 0.00 0.00 80 1024.6
20171216100557 48 298 5.0 10.0 0.00 0.00 0.00 80 1024.7
20171216100105 48 321 5.0 11.0 0.00 0.01 0.00 80 1024.7
20171216095551 48 299 6.0 12.0 0.00 0.01 0.00 80 1024.7
20171216095059 48 293 4.0 10.0 0.00 0.01 0.00 80 1024.7
20171216094948 47 265 3.0 12.0 0.00 0.01 0.00 79 1024.8
20171216094605 48 309 6.0 12.0 0.00 0.01 0.00 79 1024.7
20171216094054 48 323 6.0 12.0 0.00 0.01 0.00 79 1024.6
20171216093602 48 287 6.0 11.0 0.00 0.01 0.00 79 1024.5
20171216093406 48 300 6.0 11.0 0.00 0.01 0.00 79 1024.5
20171216093052 48 325 6.0 11.0 0.00 0.01 0.00 79 1024.4
20171216092557 48 301 6.0 11.0 0.00 0.01 0.00 80 1024.3
20171216092108 48 313 4.0 10.0 0.00 0.01 0.00 80 1024.3
20171216091855 48 307 5.0 12.0 0.00 0.01 0.00 80 1024.2
20171216091551 49 297 6.0 15.0 0.00 0.01 0.00 80 1024.3
20171216091058 49 313 7.0 15.0 0.00 0.01 0.00 81 1024.2
20171216090606 49 307 7.0 13.0 0.00 0.01 0.00 81 1024.3
20171216090238 48 302 6.0 15.0 0.00 0.01 0.00 82 1024.2
20171216090049 49 310 8.0 15.0 0.00 0.01 0.00 82 1024.3
20171216085554 49 310 6.0 15.0 0.00 0.01 0.00 83 1024.2
20171216085059 49 316 6.0 15.0 0.00 0.01 0.00 83 1024.1
20171216084607 49 300 4.0 7.0 0.00 0.01 0.00 84 1024.2
20171216084054 49 297 4.0 10.0 0.00 0.01 0.00 84 1024.3
20171216083556 49 308 5.0 10.0 0.00 0.01 0.00 84 1024.4
20171216083101 49 306 5.0 9.0 0.00 0.01 0.00 84 1024.3
20171216083036 48 314 4.0 10.0 0.00 0.01 0.00 84 1024.4
20171216082609 49 315 3.0 10.0 0.00 0.01 0.00 84 1024.4
20171216082057 49 266 5.0 12.0 0.00 0.01 0.00 84 1024.4
20171216081600 49 283 6.0 15.0 0.00 0.01 0.00 84 1024.4
20171216081521 49 323 6.0 15.0 0.00 0.01 0.00 83 1024.5
20171216081109 49 331 8.0 15.0 0.00 0.01 0.00 84 1024.6
20171216080556 50 323 7.0 13.0 0.00 0.01 0.00 83 1024.6
20171216080101 50 333 5.0 13.0 0.00 0.01 0.01 83 1024.7
20171216075750 49 314 5.0 9.0 0.00 0.01 0.01 82 1024.8
20171216075556 49 309 4.0 8.0 0.00 0.01 0.01 82 1024.8
20171216075104 50 283 5.0 10.0 0.00 0.01 0.01 82 1024.8
20171216074552 50 300 5.0 11.0 0.00 0.01 0.01 82 1025.0
20171216074204 49 290 5.0 13.0 0.00 0.01 0.01 82 1025.0
20171216074103 50 297 6.0 13.0 0.00 0.01 0.01 82 1025.0
20171216073610 50 308 6.0 13.0 0.00 0.01 0.01 82 1024.9
20171216073101 50 328 5.0 13.0 0.00 0.01 0.01 82 1024.9
20171216072727 49 311 6.0 13.0 0.00 0.01 0.01 82 1025.0
20171216072551 50 279 7.0 13.0 0.00 0.01 0.01 82 1025.0
20171216072059 50 295 5.0 13.0 0.00 0.01 0.01 82 1025.0
20171216071603 49 300 4.0 12.0 0.00 0.01 0.01 82 1025.0
20171216071052 49 296 5.0 11.0 0.00 0.01 0.01 81 1025.0
20171216070956 49 304 5.0 11.0 0.00 0.01 0.01 81 1025.0
20171216070559 50 280 5.0 12.0 0.00 0.01 0.01 81 1025.1
20171216070103 50 307 7.0 16.0 0.00 0.01 0.01 80 1025.1
20171216065608 50 313 6.0 16.0 0.00 0.01 0.01 80 1025.1
20171216065413 50 333 9.0 15.0 0.00 0.01 0.01 80 1025.0
20171216065056 50 302 6.0 12.0 0.00 0.01 0.01 80 1025.0
20171216064603 50 304 5.0 15.0 0.00 0.01 0.01 80 1024.9
20171216064110 50 331 4.0 15.0 0.00 0.01 0.01 80 1025.0
20171216063901 50 295 4.0 13.0 0.00 0.01 0.01 80 1025.0
20171216063608 50 302 5.0 13.0 0.00 0.01 0.01 80 1024.9
20171216063054 50 309 6.0 11.0 0.00 0.01 0.01 81 1025.1
20171216062612 50 300 5.0 9.0 0.00 0.01 0.01 81 1025.1
20171216062111 50 292 4.0 11.0 0.00 0.01 0.01 81 1025.1
20171216062049 49 276 4.0 11.0 0.00 0.01 0.01 82 1025.1